This demonstration page uses our WeatherBlox Daily Observations layout. Learn more.

Left ArrowRight Arrow

44.8408, -93.29828

Hourly Observations for November 22, 2020

Temp ( °F °C ) Dew Point ( °F °C ) Humidity (%) Winds ( mph kmh ) Pressure ( in mb ) Visibility ( mi km ) Precip ( " mm )
12:53 am 00:53 Cloudy 33 0.6 26 -3.3 75 75 S 6 9 30.35 1028 9 14 0.00 0.00
1:53 am 01:53 Cloudy 32 0 26 -3.3 79 79 SSE 6 9 30.33 1027 9 14 0.00 0.00
2:53 am 02:53 Cloudy with Light Snow 32 0 27 -2.8 82 82 SE 6 9 30.30 1026 7 11 0.00 0.00
3:25 am 03:25 Cloudy with Light Snow 32 0 29 -1.7 88 88 SSE 6 9 30.32 1027 2 2 0.02 0.51
3:53 am 03:53 Cloudy with Light Snow 31 -0.6 30 -1.1 96 96 SE 6 9 30.28 1025 1 2 0.04 1.02
4:04 am 04:04 Cloudy with Light Snow 31 -0.6 30 -1.1 96 96 SE 6 9 30.29 1026 2 3 0.00 0.00
4:26 am 04:26 Cloudy with Light Snow 32 0 31 -0.6 96 96 SSE 8 13 30.28 1025 3 5 0.01 0.25
4:39 am 04:39 Cloudy with Mist and Fog 32 0 31 -0.6 96 96 S 9 15 30.27 1025 5 8 0.02 0.51
4:53 am 04:53 Cloudy with Mist and Fog 33 0.6 31 -0.6 92 92 SSE 8 13 30.24 1024 6 10 0.02 0.51
5:53 am 05:53 Cloudy 33 0.6 30 -1.1 89 89 S 8 13 30.22 1024 8 13 0.00 0.00
6:53 am 06:53 Cloudy with Light Snow 33 0.6 30 -1.1 89 89 SE 5 7 30.20 1023 6 10 0.00 0.00
7:17 am 07:17 Cloudy with Mist and Fog 33 0.6 30 -1.1 89 89 SSE 5 7 30.21 1023 6 10 0.00 0.00
7:53 am 07:53 Cloudy with Mist and Fog 33 0.6 31 -0.6 92 92 SSE 6 9 30.19 1022 5 8 0.00 0.00
8:12 am 08:12 Cloudy with Mist and Fog 34 1.1 31 -0.6 89 89 S 3 6 30.20 1023 6 10 0.00 0.00
8:53 am 08:53 Cloudy with Mist and Fog 35 1.7 31 -0.6 85 85 SW 6 9 30.19 1022 5 8 0.00 0.00
9:53 am 09:53 Cloudy with Mist and Fog 36 2.2 32 0 86 86 WSW 9 15 30.18 1022 6 10 0.00 0.00
10:53 am 10:53 Cloudy with Mist and Fog 37 2.8 33 0.6 86 86 WSW 8 13 30.17 1022 6 10 0.00 0.00
11:40 am 11:40 Cloudy 39 3.9 35 1.7 86 86 W 8 13 30.16 1021 7 11 0.00 0.00
11:53 am 11:53 Mostly Cloudy 41 5 36 2.2 82 82 W 8 13 30.15 1021 7 11 0.00 0.00
12:07 pm 12:07 Mostly Cloudy 41 5 35 1.7 79 79 W 12 19 30.15 1021 8 13 0.00 0.00
12:53 pm 12:53 Cloudy 40 4.4 34 1.1 79 79 W 15 24 30.15 1021 9 14 0.00 0.00
1:53 pm 13:53 Cloudy 40 4.4 32 0 73 73 WNW 16 26 30.15 1021 10 16 0.00 0.00
2:53 pm 14:53 Cloudy 40 4.4 32 0 73 73 WNW 16 26 30.15 1021 10 16 0.00 0.00
3:53 pm 15:53 Cloudy 39 3.9 32 0 76 76 WNW 9 15 30.17 1022 10 16 0.00 0.00
4:37 pm 16:37 Cloudy 39 3.9 32 0 76 76 W 8 13 30.17 1022 10 16 0.00 0.00
4:53 pm 16:53 Cloudy 39 3.9 32 0 76 76 WNW 12 19 30.17 1022 10 16 0.00 0.00
5:34 pm 17:34 Mostly Cloudy 37 2.8 29 -1.7 73 73 NW 20 31 30.21 1023 10 16 0.00 0.00
5:53 pm 17:53 Mostly Cloudy 37 2.8 28 -2.2 70 70 NW 17 28 30.20 1023 10 16 0.00 0.00
6:53 pm 18:53 Cloudy 34 1.1 26 -3.3 73 73 WNW 13 20 30.23 1024 10 16 0.00 0.00
7:53 pm 19:53 Cloudy 34 1.1 26 -3.3 73 73 NW 13 20 30.24 1024 10 16 0.00 0.00
8:53 pm 20:53 Cloudy 33 0.6 26 -3.3 75 75 WNW 10 17 30.26 1025 10 16 0.00 0.00
9:21 pm 21:21 Mostly Cloudy 32 0 25 -3.9 75 75 WNW 10 17 30.29 1026 10 16 0.00 0.00
9:53 pm 21:53 Partly Cloudy 31 -0.6 24 -4.4 76 76 NW 10 17 30.27 1025 10 16 0.00 0.00
10:53 pm 22:53 Mostly Cloudy 30 -1.1 23 -5 75 75 NW 10 17 30.28 1025 10 16 0.00 0.00
11:53 pm 23:53 Mostly Clear 29 -1.7 22 -5.6 75 75 NW 12 19 30.30 1026 10 16 0.00 0.00

Powered by AerisWeather